Location: Lone Wolf Observatory
(41.0360°N, 89.2260°W)
Time: 09:22:53
(UTC-05:00)

Amateur Radio Satellites - All Passes

Search period start: 02 August 2015 08:52
Search period end: 03 August 2015 08:52
Location: Lone Wolf Observatory, 41.0360°N, 89.2260°W

Satellite Date Start Highest point End Downlink Frequencies (MHz)
Time Altitude Azimuth
CUTE-I 02 Aug 08:57:51 09:01:07 16° 298° (WNW) 09:04:09 437.470
AUBIESAT-1 02 Aug 09:01:54 09:05:41 37° 65° (ENE) 09:09:47 437.475
PCSat 02 Aug 09:04:21 09:09:41 63° 115° (ESE) 09:15:04 145.827
BEESAT 3 02 Aug 09:09:34 09:13:14 33° 245° (WSW) 09:16:48 437.485
Cosmos 2499 02 Aug 09:10:27 09:17:24 39° 289° (WNW) 09:24:47 435.465 / 435.565
RS-15 02 Aug 09:24:49 09:32:35 19° 259° (W) 09:39:35 29.354- 29.394
COMPASS 1 02 Aug 09:37:02 09:41:09 49° 99° (E) 09:45:14 437.405
ZACube-1 02 Aug 09:37:39 09:39:29 12° 88° (E) 09:41:34 437.345
SEEDS 02 Aug 09:54:01 09:58:18 82° 283° (WNW) 10:02:32 437.485
YUBILEINY 02 Aug 09:54:24 09:59:23 17° 58° (ENE) 10:04:53 435.215
DELFI C3 02 Aug 09:55:36 09:58:27 19° 92° (E) 10:01:24 145.870
UNISAT 6 02 Aug 09:56:49 10:00:30 28° 69° (ENE) 10:04:20 437.425
DOVE 4 02 Aug 09:57:19 10:01:50 51° 286° (WNW) 10:06:35 437.250
FUNcube-1 02 Aug 09:57:34 10:00:53 20° 92° (E) 10:04:21 145.935
CINEMA 3 02 Aug 09:57:35 10:02:19 75° 101° (E) 10:07:14 145.822/145.860
POPSAT HIP 1 02 Aug 09:57:41 09:58:18 10° 63° (ENE) 09:59:08 437.405
CUTE 1.7 + AOD 2 02 Aug 09:58:57 10:03:11 57° 286° (WNW) 10:07:23 437.475
UWE-3 02 Aug 10:02:32 10:06:36 31° 95° (E) 10:10:46 435.000/436.395/437.385
QB50P2 02 Aug 10:04:19 10:06:12 13° 65° (ENE) 10:08:18 145.880/145.840
SO-50 02 Aug 10:05:26 10:10:04 49° 308° (NW) 10:14:51 436.795
CANX-2 02 Aug 10:07:40 10:11:45 41° 288° (WNW) 10:15:46 2200.000
Oscar 11 02 Aug 10:07:43 10:11:50 40° 98° (E) 10:15:57 145.826/435.025
HO-68 02 Aug 10:08:26 10:15:37 73° 289° (WNW) 10:22:45 435.675
M-CUBED/EXP-1 PRIME 02 Aug 10:08:28 10:12:11 34° 260° (W) 10:16:10 437.505
BRITE-PL 02 Aug 10:12:00 10:14:30 15° 293° (WNW) 10:16:54 437.365/2234.400
AIST 2 02 Aug 10:12:19 10:16:18 44° 243° (WSW) 10:20:13 435.215
O/OREOS (USA 219) 02 Aug 10:12:53 10:15:38 16° 52° (NE) 10:18:32 437.305
HUMSAT D 02 Aug 10:14:28 10:15:58 12° 88° (E) 10:17:43 437.325/437.525
GOMX 1 02 Aug 10:15:39 10:19:11 22° 291° (WNW) 10:22:46 467.674
AAUSAT CUBESAT 2 02 Aug 10:17:21 10:21:32 66° 285° (WNW) 10:25:40 437.432
CUBEBUG 2 02 Aug 10:20:19 10:24:56 61° 101° (E) 10:29:38 437.445
DUCHIFAT 1 02 Aug 10:26:05 10:29:10 21° 68° (ENE) 10:32:21 145.980
QB50P1 02 Aug 10:30:04 10:33:24 24° 69° (ENE) 10:36:49 145.935-145.965
NANOSAT C BR1 02 Aug 10:30:46 10:34:05 24° 69° (ENE) 10:37:30 145.865
Cosmos 2491 02 Aug 10:33:56 10:35:52 11° 75° (ENE) 10:38:35 435.465 / 435.565
AUBIESAT-1 02 Aug 10:37:30 10:40:35 20° 264° (W) 10:43:44 437.475
TIGRISAT 02 Aug 10:38:52 10:43:11 77° 76° (ENE) 10:47:39 435.000
DX 1 02 Aug 10:40:29 10:42:55 15° 91° (E) 10:45:32 434.975-435.025
ANTELSAT 02 Aug 10:41:11 10:45:32 85° 78° (ENE) 10:50:02 437.575/2403.000
PCSat 02 Aug 10:49:24 10:53:36 22° 315° (NW) 10:57:42 145.827
VELOX 1 02 Aug 10:59:44 11:02:05 15° 90° (E) 11:04:38 145.980
ZACube-1 02 Aug 11:11:47 11:16:19 64° 285° (WNW) 11:20:50 437.345
POLYITAN 1 02 Aug 11:12:54 11:17:05 74° 76° (ENE) 11:21:18 437.675
COMPASS 1 02 Aug 11:13:59 11:16:26 15° 294° (WNW) 11:18:43 437.405
50 SAT 02 Aug 11:15:03 11:18:19 25° 95° (E) 11:21:38 437.505
ESTCUBE 1 02 Aug 11:16:17 11:18:58 16° 90° (E) 11:21:50 437.505/2401.250
AIST 1 02 Aug 11:19:44 11:22:40 18° 88° (E) 11:25:44
BUGSAT 1 02 Aug 11:26:42 11:30:41 62° 75° (ENE) 11:34:41 437.445
POPSAT HIP 1 02 Aug 11:29:27 11:33:38 73° 258° (WSW) 11:37:50 437.405
DELFI C3 02 Aug 11:29:58 11:33:38 32° 289° (WNW) 11:37:13 145.870
FUNcube-1 02 Aug 11:33:07 11:37:21 39° 288° (WNW) 11:41:36 145.935
UNISAT 6 02 Aug 11:33:34 11:37:16 26° 266° (W) 11:41:00 437.425
CINEMA 3 02 Aug 11:36:49 11:39:02 13° 296° (WNW) 11:41:02 145.822/145.860
QB50P2 02 Aug 11:37:32 11:41:40 56° 260° (W) 11:45:49 145.880/145.840
UWE-3 02 Aug 11:39:08 11:43:02 27° 291° (WNW) 11:46:54 435.000/436.395/437.385
Oscar 11 02 Aug 11:44:39 11:47:45 19° 293° (WNW) 11:50:43 145.826/435.025
UKube-1 02 Aug 11:44:57 11:49:17 72° 102° (ESE) 11:53:35 .
HUMSAT D 02 Aug 11:47:52 11:52:10 60° 285° (WNW) 11:56:25 437.325/437.525
YUBILEINY 02 Aug 11:49:05 11:57:58 80° 81° (E) 12:06:49 435.215
O/OREOS (USA 219) 02 Aug 11:50:59 11:55:31 59° 251° (WSW) 12:00:01 437.305
SO-50 02 Aug 11:51:03 11:51:54 10° 330° (NNW) 11:52:35 436.795
AISAT 02 Aug 11:55:59 12:00:22 63° 101° (E) 12:04:45 437.250
CUBEBUG 2 02 Aug 11:58:28 12:01:12 15° 295° (WNW) 12:03:46 437.445
HO-68 02 Aug 11:58:29 12:02:17 15° 307° (NW) 12:05:43 435.675
DUCHIFAT 1 02 Aug 12:01:00 12:04:48 32° 264° (W) 12:08:34 145.980
QB50P1 02 Aug 12:05:31 12:09:10 28° 265° (W) 12:12:48 145.935-145.965
CUBEBUG 1 02 Aug 12:06:03 12:10:13 45° 99° (E) 12:14:23 437.445
NANOSAT C BR1 02 Aug 12:06:11 12:09:50 28° 265° (W) 12:13:27 145.865
DX 1 02 Aug 12:15:18 12:19:29 47° 288° (WNW) 12:23:38 434.975-435.025
Oscar 19 02 Aug 12:18:30 12:21:42 17° 63° (ENE) 12:25:05 437.125/150
Cosmos 2491 02 Aug 12:22:38 12:31:17 67° 93° (E) 12:39:56 435.465 / 435.565
Cosmos 2504 02 Aug 12:30:58 12:36:43 21° 63° (ENE) 12:42:58 435.465 / 435.565
VELOX 1 02 Aug 12:34:43 12:39:00 50° 287° (WNW) 12:43:15 145.980
SPROUT 02 Aug 12:37:01 12:40:46 29° 95° (E) 12:44:33 437.525
TISAT 1 02 Aug 12:43:47 12:46:56 21° 93° (E) 12:50:11 437.305
50 SAT 02 Aug 12:49:32 12:52:50 24° 290° (WNW) 12:56:01 437.505
ESTCUBE 1 02 Aug 12:51:50 12:56:10 47° 287° (WNW) 13:00:27 437.505/2401.250
AIST 1 02 Aug 12:56:04 13:00:06 35° 284° (WNW) 13:04:05
UKube-1 02 Aug 13:23:28 13:24:53 11° 297° (WNW) 13:26:05 .
Gurwin Techsat 1B 02 Aug 13:27:46 13:31:53 24° 66° (ENE) 13:36:08 435.225
AISAT 02 Aug 13:34:21 13:36:29 13° 296° (WNW) 13:38:25 437.250
ITAMSAT 1 02 Aug 13:41:19 13:45:40 28° 67° (ENE) 13:50:06 435.822/435.867
CUBEBUG 1 02 Aug 13:43:26 13:46:15 17° 294° (WNW) 13:48:57 437.445
YUBILEINY 02 Aug 13:47:39 13:53:55 21° 279° (W) 13:59:44 435.215
Oscar 19 02 Aug 13:55:34 14:00:37 60° 259° (W) 14:05:43 437.125/150
BEESAT 02 Aug 13:59:01 14:02:47 23° 93° (E) 14:06:38 436.000
SPROUT 02 Aug 14:13:14 14:16:45 24° 291° (WNW) 14:20:10 437.525
JAS-2 02 Aug 14:17:48 14:23:03 30° 63° (ENE) 14:28:57 435.910
TISAT 1 02 Aug 14:18:59 14:22:47 32° 289° (WNW) 14:26:32 437.305
SWISSCUBE 02 Aug 14:19:18 14:23:48 41° 98° (E) 14:28:17 437.505
Cosmos 2504 02 Aug 14:21:38 14:30:08 87° 264° (W) 14:38:47 435.465 / 435.565
Cosmos 2491 02 Aug 14:21:44 14:28:59 27° 295° (WNW) 14:35:57 435.465 / 435.565
DANDE 02 Aug 14:23:07 14:24:33 12° 72° (ENE) 14:26:21 436.750
CUSAT 1 02 Aug 14:30:58 14:34:38 26° 76° (ENE) 14:39:18 437.405
HORYU 2 02 Aug 14:35:09 14:36:06 11° 62° (ENE) 14:37:17 437.375
ITUPSAT 1 02 Aug 14:40:51 14:45:36 61° 101° (E) 14:50:19 437.325
AO-7 02 Aug 15:03:37 15:11:20 45° 63° (ENE) 15:19:10 29.400- 29.500
Gurwin Techsat 1B 02 Aug 15:06:33 15:11:37 45° 262° (W) 15:16:43 435.225
ITAMSAT 1 02 Aug 15:20:14 15:25:03 36° 263° (W) 15:29:50 435.822/435.867
STARS 02 Aug 15:33:23 15:36:48 22° 93° (E) 15:40:18 437.465
BEESAT 02 Aug 15:36:21 15:40:45 36° 290° (WNW) 15:45:04 436.000
SWISSCUBE 02 Aug 15:57:45 16:01:25 22° 294° (WNW) 16:04:57 437.505
JAS-2 02 Aug 16:01:53 16:07:47 49° 263° (W) 16:14:28 435.910
KKS-1 02 Aug 16:03:19 16:07:49 79° 103° (ESE) 16:12:17 437.445
DANDE 02 Aug 16:03:48 16:07:39 55° 261° (W) 16:12:47 436.750
HORYU 2 02 Aug 16:07:41 16:12:08 81° 257° (WSW) 16:16:39 437.375
PCSat 02 Aug 16:12:37 16:12:46 10° 33° (NNE) 16:13:10 145.827
CUSAT 1 02 Aug 16:13:11 16:17:08 31° 263° (W) 16:22:03 437.405
Cosmos 2504 02 Aug 16:16:05 16:21:21 17° 280° (W) 16:26:10 435.465 / 435.565
ITUPSAT 1 02 Aug 16:20:11 16:23:02 15° 297° (WNW) 16:25:41 437.325
GONETS M04 02 Aug 16:30:58 16:38:48 37° 70° (ENE) 16:46:47
VERMONT LUNAR 02 Aug 16:48:10 16:48:55 11° 147° (SSE) 16:49:46 437.305
AO-7 02 Aug 16:56:18 17:04:11 43° 261° (W) 17:12:01 29.400- 29.500
SO-50 02 Aug 16:57:06 17:00:59 23° 42° (NE) 17:04:55 436.795
CUTE-I 02 Aug 17:00:50 17:03:49 16° 62° (ENE) 17:07:02 437.470
MOZHAYETS 4 02 Aug 17:05:11 17:09:38 44° 98° (E) 17:14:02
Cosmos 2499 02 Aug 17:08:57 17:13:46 16° 58° (ENE) 17:19:07 435.465 / 435.565
STARS 02 Aug 17:09:19 17:13:20 34° 290° (WNW) 17:17:17 437.465
KKS-1 02 Aug 17:42:37 17:43:52 11° 298° (WNW) 17:44:53 437.445
Cubesat XI-IV 02 Aug 17:43:10 17:48:01 37° 69° (ENE) 17:52:56 437.490
PCSat 02 Aug 17:52:23 17:57:39 49° 55° (NE) 18:02:54 145.827
VERMONT LUNAR 02 Aug 18:22:08 18:25:09 41° 162° (SSE) 18:28:11 437.305
GONETS M04 02 Aug 18:27:38 18:35:55 49° 270° (W) 18:44:09
SO-50 02 Aug 18:37:03 18:41:55 56° 242° (WSW) 18:46:38 436.795
CUTE-I 02 Aug 18:38:00 18:43:21 73° 257° (WSW) 18:48:44 437.470
STRAND 1 02 Aug 18:38:21 18:38:54 10° 86° (E) 18:39:49 437.568
MOZHAYETS 4 02 Aug 18:43:15 18:46:33 19° 294° (WNW) 18:49:42
HO-68 02 Aug 18:52:24 18:56:31 17° 55° (NE) 19:00:57 435.675
Cosmos 2499 02 Aug 18:59:52 19:08:41 76° 80° (E) 19:17:34 435.465 / 435.565
PHONESAT 2.4 02 Aug 19:03:28 19:05:53 18° 150° (SSE) 19:08:21 2401.200-2431.200
CUBESAT XI-V 02 Aug 19:03:40 19:08:16 67° 101° (E) 19:12:50 437.345
Cubesat XI-IV 02 Aug 19:23:33 19:28:12 29° 265° (W) 19:32:46 437.490
PRISM 02 Aug 19:26:40 19:29:58 24° 95° (E) 19:33:19 437.425
CANX-2 02 Aug 19:26:47 19:28:41 13° 65° (ENE) 19:30:47 2200.000
DOVE 4 02 Aug 19:27:51 19:30:00 14° 65° (ENE) 19:32:18 437.250
RS-15 02 Aug 19:28:08 19:32:43 14° 99° (E) 19:38:18 29.354- 29.394
PCSat 02 Aug 19:36:29 19:40:47 23° 252° (WSW) 19:44:55 145.827
BRITE-PL 02 Aug 19:43:12 19:47:30 63° 75° (ENE) 19:51:39 437.365/2234.400
GOMX 1 02 Aug 19:45:46 19:49:37 36° 72° (ENE) 19:53:28 467.674
VERMONT LUNAR 02 Aug 19:58:34 20:01:45 83° 180° (S) 20:04:57 437.305
STRAND 1 02 Aug 20:13:47 20:18:55 87° 281° (W) 20:24:01 437.568
ISS 02 Aug 20:14:49 20:17:41 30° 136° (SE) 20:20:36 145.825
COMPASS 1 02 Aug 20:28:03 20:31:49 33° 71° (ENE) 20:35:39 437.405
HO-68 02 Aug 20:36:11 20:43:20 84° 73° (ENE) 20:50:32 435.675
PHONESAT 2.4 02 Aug 20:40:00 20:43:27 57° 166° (SSE) 20:46:55 2401.200-2431.200
CUBESAT XI-V 02 Aug 20:42:58 20:45:12 13° 296° (WNW) 20:47:12 437.345
DELFI C3 02 Aug 20:43:54 20:45:35 13° 65° (ENE) 20:47:26 145.870
SEEDS 02 Aug 20:45:30 20:49:43 67° 75° (ENE) 20:53:59 437.485
CUTE 1.7 + AOD 2 02 Aug 20:51:10 20:55:27 84° 256° (WSW) 20:59:46 437.475
FUNcube-1 02 Aug 20:54:15 20:56:39 15° 65° (ENE) 20:59:13 145.935
Cosmos 2499 02 Aug 20:54:24 21:01:06 24° 278° (W) 21:07:29 435.465 / 435.565
CINEMA 3 02 Aug 20:59:36 21:03:42 63° 75° (ENE) 21:07:54 145.822/145.860
CANX-2 02 Aug 20:59:56 21:04:09 59° 260° (W) 21:08:25 2200.000
UWE-3 02 Aug 21:00:12 21:03:30 23° 68° (ENE) 21:06:57 435.000/436.395/437.385
PRISM 02 Aug 21:01:54 21:05:23 27° 291° (WNW) 21:08:48 437.425
Oscar 11 02 Aug 21:02:27 21:06:16 31° 70° (ENE) 21:10:08 145.826/435.025
DOVE 4 02 Aug 21:03:25 21:07:26 47° 261° (W) 21:11:28 437.250
AAUSAT CUBESAT 2 02 Aug 21:07:26 21:11:38 80° 77° (ENE) 21:15:53 437.432
CUBEBUG 2 02 Aug 21:18:41 21:22:40 46° 73° (ENE) 21:26:50 437.445
GOMX 1 02 Aug 21:25:09 21:28:00 17° 268° (W) 21:30:40 467.674
BRITE-PL 02 Aug 21:25:42 21:26:32 10° 271° (W) 21:27:06 437.365/2234.400
RS-15 02 Aug 21:32:29 21:43:15 72° 117° (ESE) 21:54:27 29.354- 29.394
VERMONT LUNAR 02 Aug 21:35:18 21:38:25 54° 194° (SSW) 21:41:31 437.305
DX 1 02 Aug 21:36:40 21:38:53 14° 64° (ENE) 21:41:16 434.975-435.025
M-CUBED/EXP-1 PRIME 02 Aug 21:49:45 21:53:11 20° 96° (E) 21:56:41 437.505
ISS 02 Aug 21:51:04 21:54:05 33° 333° (NNW) 21:57:06 145.825
STRAND 1 02 Aug 21:55:44 21:57:25 11° 300° (WNW) 21:58:50 437.568
VELOX 1 02 Aug 21:57:52 22:00:06 14° 64° (ENE) 22:02:29 145.980
50 SAT 02 Aug 21:59:47 22:01:52 14° 66° (ENE) 22:04:07 437.505
COMPASS 1 02 Aug 22:04:22 22:07:34 20° 267° (W) 22:10:42 437.405
ZACube-1 02 Aug 22:07:28 22:11:40 82° 258° (WSW) 22:16:00 437.345
DELFI C3 02 Aug 22:16:13 22:20:13 55° 260° (W) 22:24:14 145.870
ESTCUBE 1 02 Aug 22:16:17 22:18:57 16° 65° (ENE) 22:21:47 437.505/2401.250
AUBIESAT-1 02 Aug 22:16:47 22:21:00 32° 100° (E) 22:25:08 437.475
PHONESAT 2.4 02 Aug 22:17:51 22:21:22 84° 183° (S) 22:24:53 2401.200-2431.200
SEEDS 02 Aug 22:25:35 22:26:03 10° 273° (W) 22:26:14 437.485
BEESAT 2 02 Aug 22:26:19 22:28:14 13° 110° (ESE) 22:30:20 435.950
HO-68 02 Aug 22:27:27 22:32:02 17° 272° (W) 22:36:14 435.675
FUNcube-1 02 Aug 22:28:32 22:32:35 48° 261° (W) 22:36:46 145.935
TIGRISAT 02 Aug 22:31:33 22:34:35 17° 91° (E) 22:37:48 435.000
Cosmos 2491 02 Aug 22:33:32 22:41:05 33° 69° (ENE) 22:48:48 435.465 / 435.565
ANTELSAT 02 Aug 22:33:58 22:37:16 19° 91° (E) 22:40:42 437.575/2403.000
UWE-3 02 Aug 22:36:12 22:39:55 29° 265° (W) 22:43:40 435.000/436.395/437.385
Oscar 11 02 Aug 22:39:00 22:42:29 23° 267° (W) 22:45:55 145.826/435.025
HUMSAT D 02 Aug 22:39:06 22:43:15 88° 257° (WSW) 22:47:29 437.325/437.525
UKube-1 02 Aug 22:39:25 22:43:39 59° 74° (ENE) 22:47:56 .
AISAT 02 Aug 22:53:27 22:57:44 55° 73° (ENE) 23:02:03 437.250
YUBILEINY 02 Aug 22:57:15 23:02:16 18° 79° (E) 23:07:50 435.215
CUBEBUG 2 02 Aug 22:57:21 22:59:44 14° 271° (W) 23:01:58 437.445
POLYITAN 1 02 Aug 23:00:15 23:01:56 12° 89° (E) 23:03:52 437.675
BEESAT 3 02 Aug 23:01:19 23:05:09 42° 117° (ESE) 23:09:02 437.485
CUBEBUG 1 02 Aug 23:02:04 23:06:03 37° 72° (ENE) 23:10:05 437.445
AIST 1 02 Aug 23:02:54 23:07:04 51° 79° (E) 23:11:12
DX 1 02 Aug 23:10:27 23:14:44 55° 260° (W) 23:19:00 434.975-435.025
VERMONT LUNAR 02 Aug 23:12:42 23:14:45 16° 209° (SSW) 23:16:45 437.305
POPSAT HIP 1 02 Aug 23:15:33 23:18:27 18° 92° (E) 23:21:28 437.405
QB50P2 02 Aug 23:23:20 23:26:43 23° 94° (E) 23:30:10 145.880/145.840
M-CUBED/EXP-1 PRIME 02 Aug 23:23:34 23:28:12 46° 293° (WNW) 23:32:38 437.505
UNISAT 6 02 Aug 23:24:25 23:29:06 64° 101° (E) 23:33:47 437.425
ISS 02 Aug 23:29:27 23:31:15 14° 352° (N) 23:33:03 145.825
SPROUT 02 Aug 23:31:25 23:34:44 23° 69° (ENE) 23:38:10 437.525
VELOX 1 02 Aug 23:31:52 23:36:13 58° 260° (W) 23:40:33 145.980
50 SAT 02 Aug 23:32:23 23:36:06 43° 262° (W) 23:39:52 437.505
TISAT 1 02 Aug 23:36:32 23:39:05 16° 66° (ENE) 23:41:45 437.305
DUCHIFAT 1 02 Aug 23:45:17 23:49:14 37° 97° (E) 23:53:12 145.980
RS-15 02 Aug 23:46:32 23:56:40 39° 323° (NW) 00:07:05 29.354- 29.394
QB50P1 02 Aug 23:49:57 23:54:02 44° 99° (E) 23:58:08 145.935-145.965
NANOSAT C BR1 02 Aug 23:50:24 23:54:28 43° 98° (E) 23:58:33 145.865
ESTCUBE 1 02 Aug 23:51:00 23:55:26 52° 260° (W) 23:59:53 437.505/2401.250
AUBIESAT-1 02 Aug 23:51:29 23:55:36 29° 297° (WNW) 23:59:32 437.475
PHONESAT 2.4 02 Aug 23:55:50 23:59:13 44° 199° (SSW) 00:02:33 2401.200-2431.200
BEESAT 2 03 Aug 00:01:50 00:05:52 56° 306° (NW) 00:09:56 435.950
TIGRISAT 03 Aug 00:07:06 00:11:38 48° 287° (WNW) 00:16:09 435.000
AIST 2 03 Aug 00:09:43 00:13:38 38° 116° (ESE) 00:17:38 435.215
ANTELSAT 03 Aug 00:09:48 00:14:16 44° 288° (WNW) 00:18:43 437.575/2403.000
UKube-1 03 Aug 00:18:28 00:20:15 12° 271° (W) 00:21:45 .
O/OREOS (USA 219) 03 Aug 00:25:49 00:28:23 16° 101° (E) 00:31:09 437.305
Cosmos 2491 03 Aug 00:29:59 00:38:25 55° 269° (W) 00:46:45 435.465 / 435.565
AISAT 03 Aug 00:32:30 00:34:44 13° 270° (W) 00:36:44 437.250
POLYITAN 1 03 Aug 00:34:03 00:38:16 56° 286° (WNW) 00:42:28 437.675
CUBEBUG 1 03 Aug 00:39:23 00:42:34 19° 268° (W) 00:45:38 437.445
BEESAT 3 03 Aug 00:40:08 00:43:17 21° 315° (NW) 00:46:23 437.485
AIST 1 03 Aug 00:42:27 00:44:17 12° 274° (W) 00:45:54
BUGSAT 1 03 Aug 00:44:03 00:48:07 72° 285° (WNW) 00:52:13 437.445
YUBILEINY 03 Aug 00:49:19 00:58:02 89° 277° (W) 01:06:51 435.215
POPSAT HIP 1 03 Aug 00:50:31 00:54:29 38° 289° (WNW) 00:58:26 437.405
QB50P2 03 Aug 00:58:52 01:02:38 30° 290° (WNW) 01:06:21 145.880/145.840
UNISAT 6 03 Aug 01:02:46 01:05:24 15° 296° (WNW) 01:07:51 437.425
BEESAT 03 Aug 01:05:24 01:09:23 27° 68° (ENE) 01:13:27 436.000
ISS 03 Aug 01:06:36 01:08:41 16° 13° (NNE) 01:10:47 145.825
SPROUT 03 Aug 01:06:54 01:10:42 30° 264° (W) 01:14:28 437.525
Cosmos 2504 03 Aug 01:07:00 01:08:07 11° 76° (ENE) 01:09:52 435.465 / 435.565
TISAT 1 03 Aug 01:10:32 01:14:31 43° 261° (W) 01:18:32 437.305
DUCHIFAT 1 03 Aug 01:21:43 01:24:48 19° 293° (WNW) 01:27:46 145.980
SWISSCUBE 03 Aug 01:25:35 01:30:10 47° 72° (ENE) 01:34:47 437.505
QB50P1 03 Aug 01:26:48 01:29:35 17° 294° (WNW) 01:32:14 145.935-145.965
NANOSAT C BR1 03 Aug 01:27:12 01:29:59 17° 294° (WNW) 01:32:38 145.865
PHONESAT 2.4 03 Aug 01:35:09 01:36:41 12° 213° (SSW) 01:38:07 2401.200-2431.200
ITUPSAT 1 03 Aug 01:47:19 01:52:06 70° 75° (ENE) 01:56:56 437.325
AIST 2 03 Aug 01:48:51 01:52:20 24° 314° (NW) 01:55:47 435.215
O/OREOS (USA 219) 03 Aug 02:03:06 02:07:26 48° 296° (WNW) 02:11:49 437.305
RS-15 03 Aug 02:05:32 02:13:36 21° 356° (N) 02:21:52 29.354- 29.394
Oscar 19 03 Aug 02:07:09 02:12:09 48° 99° (E) 02:17:11 437.125/150
STARS 03 Aug 02:30:35 02:33:43 20° 67° (ENE) 02:36:58 437.465
ISS 03 Aug 02:42:30 02:45:42 51° 32° (NNE) 02:48:53 145.825
BEESAT 03 Aug 02:42:50 02:47:08 32° 264° (W) 02:51:25 436.000
YUBILEINY 03 Aug 02:50:24 02:56:23 19° 300° (WNW) 03:01:58 435.215
Cosmos 2504 03 Aug 02:51:49 02:58:54 72° 94° (E) 03:06:34 435.465 / 435.565
KKS-1 03 Aug 03:01:09 03:05:33 71° 75° (ENE) 03:09:58 437.445
SWISSCUBE 03 Aug 03:04:54 03:08:18 18° 269° (W) 03:11:33 437.505
AO-7 03 Aug 03:09:08 03:10:55 11° 83° (E) 03:13:29 29.400- 29.500
JAS-2 03 Aug 03:10:57 03:17:37 31° 91° (E) 03:24:18 435.910
Gurwin Techsat 1B 03 Aug 03:22:30 03:27:50 74° 102° (ESE) 03:33:08 435.225
ITUPSAT 1 03 Aug 03:28:32 03:30:35 12° 272° (W) 03:32:22 437.325
ITAMSAT 1 03 Aug 03:32:37 03:37:49 80° 102° (ESE) 03:43:00 435.822/435.867
CUSAT 1 03 Aug 03:41:04 03:42:45 15° 95° (E) 03:44:25 437.405
Oscar 19 03 Aug 03:47:17 03:51:13 22° 295° (WNW) 03:55:01 437.125/150
HORYU 2 03 Aug 03:59:50 04:03:04 20° 92° (E) 04:06:25 437.375
STARS 03 Aug 04:05:52 04:09:56 37° 262° (W) 04:14:00 437.465
MOZHAYETS 4 03 Aug 04:06:51 04:11:11 41° 72° (ENE) 04:15:36
ISS 03 Aug 04:19:35 04:21:53 18° 227° (SW) 04:24:08 145.825
RS-15 03 Aug 04:21:08 04:31:04 32° 30° (NNE) 04:41:34 29.354- 29.394
KKS-1 03 Aug 04:41:55 04:42:46 10° 272° (W) 04:43:19 437.445
Cosmos 2504 03 Aug 04:46:40 04:52:07 21° 297° (WNW) 04:57:32 435.465 / 435.565
JAS-2 03 Aug 04:55:19 05:03:01 59° 289° (WNW) 05:10:31 435.910
AO-7 03 Aug 04:57:13 05:05:32 67° 104° (ESE) 05:13:47 29.400- 29.500
Gurwin Techsat 1B 03 Aug 05:04:10 05:07:15 15° 298° (WNW) 05:10:07 435.225
ITAMSAT 1 03 Aug 05:14:07 05:16:44 14° 299° (WNW) 05:19:06 435.822/435.867
DANDE 03 Aug 05:18:00 05:20:36 24° 283° (WNW) 05:22:53 436.750
CUSAT 1 03 Aug 05:24:38 05:25:17 10° 289° (WNW) 05:25:46 437.405
GONETS M04 03 Aug 05:31:59 05:39:52 42° 88° (E) 05:47:53
HORYU 2 03 Aug 05:35:40 05:39:53 39° 289° (WNW) 05:44:02 437.375
MOZHAYETS 4 03 Aug 05:45:13 05:48:37 19° 269° (W) 05:51:56
STRAND 1 03 Aug 05:52:41 05:55:53 17° 63° (ENE) 05:59:15 437.568
Cubesat XI-IV 03 Aug 06:01:58 06:04:33 14° 88° (E) 06:07:26 437.490
CUBESAT XI-V 03 Aug 06:06:38 06:11:16 64° 74° (ENE) 06:15:53 437.345
PRISM 03 Aug 06:16:59 06:19:53 19° 67° (ENE) 06:22:53 437.425
RS-15 03 Aug 06:33:41 06:45:32 85° 57° (ENE) 06:57:49 29.354- 29.394
JAS-2 03 Aug 06:43:16 06:46:39 13° 307° (NW) 06:49:36 435.910
BEESAT 2 03 Aug 06:44:55 06:46:12 11° 37° (NE) 06:47:39 435.950
AO-7 03 Aug 06:50:52 06:57:48 30° 303° (WNW) 07:04:31 29.400- 29.500
CUTE-I 03 Aug 06:55:22 07:00:27 45° 98° (E) 07:05:31 437.470
BEESAT 3 03 Aug 07:19:59 07:23:26 26° 48° (NE) 07:26:52 437.485
GONETS M04 03 Aug 07:28:33 07:36:44 43° 288° (WNW) 07:44:51
STRAND 1 03 Aug 07:29:33 07:34:39 62° 259° (W) 07:39:45 437.568
Cosmos 2499 03 Aug 07:36:15 07:43:29 59° 92° (E) 07:51:22 435.465 / 435.565
Cubesat XI-IV 03 Aug 07:39:59 07:45:18 71° 287° (WNW) 07:50:35 437.490
CUBESAT XI-V 03 Aug 07:47:01 07:49:12 13° 272° (W) 07:51:08 437.345
BRITE-PL 03 Aug 07:47:48 07:51:02 20° 93° (E) 07:54:33 437.365/2234.400
GOMX 1 03 Aug 07:48:30 07:50:08 12° 89° (E) 07:52:06 467.674
PRISM 03 Aug 07:51:11 07:55:05 37° 262° (W) 07:58:58 437.425
HO-68 03 Aug 08:06:15 08:09:54 15° 87° (E) 08:14:00 435.675
BEESAT 2 03 Aug 08:20:53 08:24:59 83° 57° (ENE) 08:29:00 435.950
AIST 2 03 Aug 08:31:34 08:35:08 26° 47° (NE) 08:38:41 435.215
SEEDS 03 Aug 08:32:13 08:33:29 11° 88° (E) 08:35:00 437.485
PCSat 03 Aug 08:33:54 08:38:59 45° 113° (ESE) 08:44:10 145.827
CUTE-I 03 Aug 08:36:03 08:40:17 24° 295° (WNW) 08:44:22 437.470
M-CUBED/EXP-1 PRIME 03 Aug 08:37:24 08:40:42 23° 61° (ENE) 08:44:16 437.505
CUTE 1.7 + AOD 2 03 Aug 08:37:36 08:40:21 17° 91° (E) 08:43:15 437.475
CANX-2 03 Aug 08:45:50 08:49:17 23° 93° (E) 08:52:46 2200.000
